Wind_Speed
13 15 15 13 12 12 12 13 15 13 10 9 12 13 10 3 7 10 14 15 16 15 14 14 13 13 12 10 10 10 9 9 9 10 11 12 13 14 15 15 16 17 18 18
15 15 15 14 11 9 11 13 14 13 11 10 11 10 8 6 6 8 10 12 12 12 12 12 11 9 9 9 9 8 7 8 9 10 11 12 13 13 14 15 15 16 17 18
10 12 14 13 11 11 13 14 13 13 13 11 11 10 9 6 4 5 7 8 8 8 8 8 7 7 7 6 6 6 6 7 8 9 11 12 13 14 14 15 16 17 17 18
9 10 14 13 11 12 14 12 10 10 11 9 8 10 10 8 5 5 4 4 5 5 5 4 4 4 4 4 5 4 5 7 8 10 12 13 14 15 16 17 17 18 19 19
9 11 14 13 12 12 12 10 10 10 11 11 8 9 11 11 9 7 6 5 2 0 1 1 1 1 2 2 2 4 6 7 9 11 13 14 15 16 17 18 19 19 20 20
10 11 12 11 12 11 8 8 11 12 11 9 11 10 11 11 10 8 7 6 4 4 3 2 1 1 1 2 4 5 7 9 11 12 14 16 17 18 19 20 21 22 22 22
14 14 13 10 11 12 10 9 17 20 17 14 13 9 10 11 9 7 6 5 4 4 3 3 2 2 3 4 6 7 9 11 12 14 16 17 18 20 21 22 22 23 23 23
15 15 12 12 12 14 9 6 12 14 14 12 8 9 12 10 9 8 7 6 5 4 4 4 4 5 6 7 8 9 11 12 14 16 17 19 20 20 21 22 23 23 24 24
14 14 14 14 13 12 8 5 6 8 8 7 4 9 10 10 10 10 9 8 7 7 7 7 7 7 8 9 10 11 12 14 15 17 18 20 21 22 23 23 23 24 24 25
14 14 14 16 13 10 8 8 6 3 6 9 9 7 10 14 15 14 11 10 9 9 9 9 10 10 10 11 12 13 14 15 17 18 19 20 21 23 24 24 24 24 25 25
14 14 13 13 10 11 11 8 7 6 5 6 11 10 14 18 19 18 15 13 12 12 12 12 12 13 13 13 14 14 15 17 18 19 21 22 23 24 24 24 24 25 25 26
16 15 14 15 14 13 13 10 10 9 8 6 8 15 15 18 21 21 19 17 16 15 16 16 15 15 15 15 15 15 17 18 19 21 22 23 24 25 25 25 25 26 26 27
17 16 15 16 19 15 12 9 8 10 10 8 9 15 17 18 19 21 20 19 18 17 17 18 17 17 17 17 17 17 17 19 20 22 23 24 25 25 26 27 27 27 28 29
16 16 15 17 18 12 6 5 8 9 10 12 11 14 18 19 20 21 22 21 20 19 18 18 18 18 18 19 19 19 20 21 22 23 24 26 26 27 27 28 28 29 30 32
16 14 14 14 15 13 11 10 11 12 14 15 15 16 18 21 24 24 24 23 22 21 20 19 19 19 20 20 21 21 22 23 24 25 26 28 28 29 30 30 31 31 33 34
18 17 15 14 13 14 13 12 13 14 15 15 16 16 20 24 25 24 23 23 22 22 21 21 20 20 21 21 22 23 23 24 25 27 28 29 30 31 32 32 33 33 35 36
19 19 17 14 12 14 15 14 15 15 15 15 15 17 20 22 23 22 22 22 22 22 22 22 22 22 22 23 24 24 25 26 27 28 30 30 31 32 33 34 35 36 38 39
18 18 17 15 12 13 13 14 13 13 13 15 16 17 19 21 20 20 21 21 21 22 23 23 24 24 24 25 25 26 27 28 29 30 31 32 33 34 36 37 38 40 41 43
18 17 17 15 14 15 17 19 19 17 16 16 16 16 18 20 20 21 22 22 23 23 25 26 26 26 26 27 27 28 29 30 31 32 33 34 35 37 39 40 41 42 44 45
17 18 18 16 16 16 21 24 21 20 19 17 17 18 20 21 21 23 25 26 27 28 28 28 28 29 29 29 29 30 31 32 33 33 34 35 37 40 42 43 44 45 46 47
18 20 20 17 15 17 24 23 21 19 20 18 18 22 25 27 28 28 28 29 30 31 31 31 30 30 31 32 32 32 33 34 35 36 37 38 41 42 43 45 46 47 48 48
21 22 23 22 21 24 26 25 24 24 24 24 25 27 29 30 30 30 31 31 31 32 32 32 32 32 33 33 34 35 35 37 38 40 41 42 44 45 47 48 47 49 50 51
23 23 26 28 28 27 29 29 27 28 29 30 30 31 31 31 32 32 33 33 34 34 34 34 35 35 35 36 37 37 38 40 41 43 45 46 48 49 49 49 50 52 53 53
26 26 28 29 31 32 30 30 30 30 32 32 32 32 33 33 34 34 35 35 36 36 36 36 37 37 38 39 40 41 42 43 45 46 48 50 52 51 51 51 52 53 54 55
28 30 29 30 33 36 34 30 31 33 34 34 34 34 35 35 35 36 36 37 37 37 37 38 39 40 41 42 43 44 45 46 48 49 51 52 53 54 54 53 54 55 55 54
30 31 31 33 34 35 35 35 35 36 36 36 36 36 36 36 37 37 38 38 39 39 40 41 41 42 43 44 45 47 48 49 51 51 53 54 55 55 55 56 56 55 55 53
Wind_Direction
17 3 358 348 329 319 315 311 316 330 340 324 305 299 289 296 276 279 277 274 272 273 273 269 269 273 270 271 273 281 287 292 299 304 308 311 313 315 315 313 311 310 310 309
358 335 329 324 324 323 317 315 321 334 336 337 321 314 319 339 301 285 279 277 269 265 266 264 259 264 265 267 271 277 287 298 305 310 316 320 321 321 320 319 320 319 319 318
313 307 307 317 319 318 317 328 332 337 340 342 336 334 332 328 332 310 281 271 270 267 262 262 253 258 261 264 272 281 296 307 314 322 325 326 326 327 327 326 324 323 322 322
297 300 309 317 317 316 322 326 328 322 321 326 340 336 0 1 9 358 340 300 270 261 253 249 250 259 257 271 281 294 310 321 329 334 334 334 334 332 331 330 329 327 324 322
302 305 308 313 315 313 315 317 315 305 292 300 347 359 14 11 22 22 17 10 12 13 206 199 215 244 279 305 317 326 331 339 341 342 341 340 338 335 332 330 328 326 324 322
303 297 298 304 317 322 324 324 328 325 317 328 20 13 2 10 21 23 26 35 43 63 83 85 64 19 344 349 347 346 346 347 347 345 343 340 337 335 332 330 328 326 324 322
304 292 289 295 320 318 320 329 337 345 360 22 25 15 350 356 0 360 6 20 33 45 53 50 39 13 356 351 350 350 348 347 345 342 339 337 335 333 332 329 327 325 323 322
296 298 300 311 314 310 312 331 335 337 346 353 8 345 342 346 345 342 344 353 360 2 5 4 360 353 349 346 346 346 343 341 339 337 335 334 333 332 330 327 324 322 321 321
289 304 307 302 300 301 286 280 306 324 337 318 316 328 337 342 341 337 334 335 338 342 345 344 343 342 341 339 339 338 337 335 334 332 331 331 330 329 327 325 323 322 321 320
277 279 285 288 300 306 290 281 273 286 336 329 313 293 316 332 330 328 326 327 329 332 333 334 335 335 333 332 331 330 330 329 328 327 327 327 325 324 323 323 322 321 321 320
282 277 282 280 277 281 283 293 287 261 248 296 326 323 317 320 321 324 324 323 326 327 327 328 331 329 326 324 321 320 321 322 323 324 324 323 323 322 322 322 321 321 320 320
278 275 270 272 266 255 253 258 269 272 265 258 294 297 298 310 315 319 322 318 319 321 321 321 323 321 317 315 314 314 315 317 318 319 320 319 319 320 320 321 321 320 320 320
282 276 271 266 265 259 241 234 250 267 274 273 273 290 299 305 307 309 312 311 310 310 309 310 311 311 309 309 309 309 310 312 314 316 317 317 317 317 317 319 319 319 319 319
289 280 271 276 294 298 299 250 246 262 272 274 275 284 296 300 299 298 301 303 304 302 302 303 304 304 303 304 304 305 308 310 312 314 315 316 315 315 316 317 318 317 317 318
291 285 274 269 278 290 298 293 280 276 274 272 270 272 278 282 284 289 294 299 301 300 299 298 300 300 300 301 301 303 306 309 311 313 314 315 314 314 314 315 316 316 317 318
289 290 280 270 263 274 275 273 276 274 272 275 273 267 266 269 278 287 293 296 297 296 296 297 298 299 299 300 301 302 304 307 309 311 313 313 313 313 313 314 314 314 316 317
287 291 289 279 262 260 268 257 254 261 263 269 269 267 270 275 283 290 293 294 295 296 297 298 299 299 299 299 300 301 303 306 307 309 311 311 312 312 313 313 313 313 315 316
287 291 290 284 268 265 276 277 269 269 266 270 274 276 281 285 291 293 293 295 297 299 300 301 300 299 298 299 299 301 302 304 306 307 309 310 311 311 312 312 312 314 314 315
280 288 291 282 268 269 266 260 249 248 251 259 269 275 280 288 295 296 295 298 298 299 300 300 299 298 297 297 298 299 301 302 304 305 307 309 310 311 311 312 313 313 314 316
269 286 289 286 275 271 274 274 267 263 254 253 268 278 282 284 289 290 293 295 296 298 298 298 298 297 297 297 297 298 299 301 303 305 307 308 310 311 311 312 313 314 314 316
274 287 289 284 275 266 265 270 272 265 263 266 271 278 280 283 286 287 287 287 289 291 293 295 295 295 295 296 297 298 299 301 302 305 306 307 309 310 310 313 315 315 317 317
278 282 286 281 268 259 262 265 266 268 272 276 278 281 282 283 284 284 284 285 287 288 290 292 292 293 294 294 296 298 299 301 302 304 306 307 308 309 310 313 314 315 316 316
267 266 267 271 272 271 271 269 268 273 277 279 279 281 282 282 283 283 285 286 287 288 290 291 292 293 293 294 295 297 298 299 300 302 304 305 308 308 309 311 312 313 315 315
262 264 264 267 272 274 275 277 281 281 281 282 282 281 282 282 282 283 284 285 287 288 289 290 291 292 292 293 294 295 296 297 299 301 302 303 305 307 308 309 309 311 312 313
261 263 264 265 269 274 279 282 284 284 283 282 283 284 284 284 284 285 286 286 287 287 288 288 289 290 291 292 294 295 295 296 298 299 300 301 302 304 306 307 307 309 310 310
261 262 264 268 273 276 279 281 283 284 284 284 284 285 286 286 286 286 287 287 287 287 287 288 289 289 290 291 292 293 294 295 297 298 299 300 301 302 303 304 306 307 307 307
Height
5886 5886 5885 5885 5885 5882 5879 5876 5873 5869 5868 5867 5864 5860 5859 5858 5860 5860 5861 5861 5862 5862 5863 5863 5864 5865 5865 5866 5867 5867 5867 5867 5867 5866 5865 5864 5863 5861 5860 5858 5857 5855 5853 5851
5888 5888 5887 5886 5884 5881 5878 5876 5872 5870 5869 5868 5863 5859 5856 5857 5858 5858 5859 5859 5859 5860 5860 5860 5861 5862 5863 5864 5865 5865 5866 5865 5864 5863 5862 5861 5860 5859 5857 5855 5853 5851 5849 5847
5890 5890 5887 5885 5883 5880 5878 5875 5872 5870 5868 5867 5864 5860 5858 5856 5856 5856 5856 5857 5857 5857 5858 5858 5859 5860 5862 5862 5863 5864 5864 5863 5862 5861 5860 5859 5857 5856 5854 5853 5851 5849 5847 5845
5889 5888 5886 5884 5882 5880 5878 5875 5872 5871 5869 5866 5864 5860 5858 5855 5855 5855 5855 5855 5856 5856 5856 5857 5858 5859 5860 5861 5862 5862 5862 5861 5860 5859 5858 5856 5855 5853 5851 5850 5848 5846 5844 5842
5887 5887 5885 5883 5882 5879 5877 5875 5872 5868 5864 5862 5861 5861 5860 5858 5856 5856 5856 5856 5855 5855 5856 5857 5857 5858 5859 5860 5860 5860 5860 5859 5858 5857 5855 5853 5852 5850 5849 5847 5845 5843 5841 5838
5885 5884 5883 5882 5880 5878 5876 5874 5871 5867 5862 5860 5862 5862 5861 5860 5859 5859 5858 5858 5857 5856 5856 5857 5857 5858 5859 5859 5859 5858 5858 5857 5856 5854 5853 5851 5849 5847 5845 5843 5841 5839 5837 5835
5883 5880 5878 5878 5878 5877 5875 5874 5871 5866 5862 5861 5863 5864 5864 5862 5861 5861 5860 5859 5858 5858 5858 5857 5857 5858 5858 5857 5857 5856 5856 5855 5854 5852 5851 5849 5847 5845 5842 5840 5838 5835 5833 5831
5881 5877 5876 5876 5877 5876 5875 5874 5873 5872 5868 5865 5864 5865 5865 5863 5863 5862 5861 5860 5859 5858 5858 5857 5857 5857 5856 5855 5855 5854 5853 5852 5851 5850 5848 5846 5844 5842 5840 5837 5835 5832 5829 5827
5881 5878 5876 5875 5875 5874 5873 5873 5873 5872 5869 5867 5865 5864 5863 5863 5862 5862 5860 5859 5859 5858 5857 5856 5855 5855 5854 5853 5852 5852 5851 5850 5849 5847 5846 5843 5841 5838 5836 5834 5831 5828 5825 5822
5878 5877 5876 5874 5873 5872 5872 5871 5871 5871 5869 5867 5865 5862 5862 5862 5861 5861 5860 5859 5857 5856 5855 5855 5854 5853 5852 5851 5850 5849 5849 5847 5846 5845 5843 5841 5838 5836 5833 5830 5827 5824 5821 5818
5875 5874 5874 5871 5870 5870 5869 5869 5868 5869 5868 5867 5864 5863 5861 5861 5860 5859 5858 5857 5856 5855 5853 5852 5852 5850 5850 5849 5848 5847 5846 5845 5843 5841 5839 5837 5835 5832 5829 5826 5823 5820 5816 5813
5870 5870 5870 5868 5866 5863 5864 5866 5867 5867 5867 5867 5866 5865 5860 5859 5858 5857 5856 5854 5854 5853 5852 5850 5849 5848 5847 5847 5846 5844 5843 5842 5840 5838 5836 5833 5831 5828 5825 5822 5818 5815 5811 5808
5866 5866 5866 5864 5863 5860 5860 5862 5863 5864 5865 5865 5864 5864 5858 5857 5856 5855 5854 5853 5852 5851 5850 5849 5847 5846 5845 5844 5842 5841 5840 5838 5836 5834 5832 5829 5826 5823 5820 5816 5813 5809 5805 5801
5863 5862 5862 5861 5857 5856 5856 5858 5859 5861 5862 5862 5861 5860 5857 5855 5853 5853 5852 5851 5850 5849 5848 5846 5845 5843 5842 5840 5839 5837 5835 5834 5832 5829 5827 5824 5821 5818 5814 5811 5807 5803 5799 5795
5859 5858 5857 5857 5856 5854 5855 5856 5857 5858 5858 5859 5859 5858 5856 5853 5851 5850 5849 5847 5846 5845 5844 5843 5841 5840 5838 5836 5835 5833 5831 5829 5826 5824 5821 5818 5815 5812 5808 5804 5800 5796 5792 5787
5854 5854 5853 5853 5852 5852 5852 5854 5854 5855 5855 5854 5854 5854 5851 5849 5847 5847 5846 5844 5842 5841 5840 5838 5837 5835 5834 5832 5830 5828 5826 5823 5821 5818 5815 5812 5808 5805 5801 5797 5793 5789 5784 5779
5851 5850 5849 5849 5849 5848 5848 5849 5850 5850 5849 5849 5849 5848 5846 5844 5843 5843 5841 5840 5838 5836 5835 5833 5832 5830 5829 5827 5824 5822 5820 5817 5815 5812 5808 5805 5802 5798 5794 5789 5785 5781 5776 5771
5847 5846 5845 5845 5845 5845 5847 5843 5844 5844 5843 5842 5842 5842 5841 5840 5839 5838 5836 5835 5833 5832 5830 5828 5826 5824 5823 5820 5818 5816 5813 5811 5808 5805 5801 5798 5794 5790 5786 5782 5777 5772 5767 5761
5843 5842 5841 5841 5841 5841 5841 5839 5838 5838 5838 5838 5837 5836 5836 5835 5834 5832 5830 5829 5828 5826 5824 5822 5820 5818 5816 5814 5811 5809 5806 5803 5800 5797 5794 5790 5786 5782 5777 5773 5768 5762 5757 5751
5836 5836 5837 5836 5836 5837 5835 5832 5832 5833 5831 5830 5830 5830 5830 5829 5829 5826 5825 5823 5821 5819 5818 5816 5814 5811 5809 5806 5804 5801 5798 5795 5792 5789 5785 5782 5777 5773 5768 5763 5757 5752 5746 5740
5828 5829 5831 5830 5831 5832 5828 5827 5827 5827 5825 5823 5823 5824 5824 5823 5823 5821 5819 5817 5815 5813 5811 5809 5806 5804 5801 5798 5796 5793 5790 5786 5783 5780 5776 5772 5768 5763 5758 5753 5747 5741 5735 5729
5825 5825 5825 5824 5824 5824 5820 5819 5820 5820 5819 5817 5817 5817 5816 5816 5815 5813 5812 5810 5808 5806 5803 5801 5798 5796 5793 5790 5787 5784 5781 5777 5773 5770 5766 5762 5757 5752 5747 5742 5736 5731 5724 5719
5821 5822 5820 5818 5817 5815 5814 5814 5813 5814 5813 5812 5811 5810 5809 5808 5807 5805 5803 5802 5799 5797 5795 5792 5789 5787 5784 5781 5778 5775 5772 5768 5764 5759 5755 5751 5746 5741 5736 5730 5725 5719 5713 5707
5814 5814 5814 5811 5808 5806 5807 5808 5808 5807 5806 5805 5804 5803 5801 5800 5798 5796 5795 5793 5790 5788 5786 5783 5780 5777 5774 5771 5768 5765 5761 5757 5753 5749 5744 5739 5734 5729 5724 5719 5714 5708 5702 5695
5808 5807 5807 5804 5801 5799 5798 5799 5799 5799 5798 5797 5795 5794 5793 5791 5789 5787 5785 5782 5780 5778 5776 5773 5770 5767 5764 5760 5757 5753 5750 5746 5742 5737 5732 5727 5722 5717 5712 5707 5702 5696 5690 5683
5800 5799 5799 5797 5796 5793 5792 5792 5791 5790 5789 5787 5786 5785 5783 5781 5779 5776 5774 5772 5770 5767 5765 5762 5759 5756 5753 5749 5745 5741 5737 5733 5729 5724 5719 5714 5709 5704 5698 5693 5689 5683 5678 5672